DAL202 KSLC-KJAC

Flight info

Callsign DAL202
Flight time 0h 54m
Altitude 35000
Route RUGGD3 HOLTR DCT ELLKK DCT MOSSS DCT
Aircraft A319/M-SDE3FGHIRWY/LB1

Departure

Time 2026-05-08 04:34
Airport Salt Lake City International Airport (KSLC)

Arrival

Time 2026-05-08 05:29
Airport Jackson Hole Airport (KJAC)
Time Latitude Longitude Altitude Speed Heading
2026-05-08 04:01 40.78817 -111.99103 4231 ft 0 kts 355°
2026-05-08 04:19 40.78803 -111.99102 4230 ft 4 kts 355°
2026-05-08 04:19 40.78785 -111.99100 4230 ft 4 kts 355°
2026-05-08 04:19 40.78759 -111.99094 4230 ft 4 kts 339°
2026-05-08 04:20 40.78738 -111.99077 4230 ft 4 kts 294°
2026-05-08 04:20 40.78735 -111.99062 4230 ft 0 kts 264°
2026-05-08 04:21 40.78736 -111.99047 4230 ft 3 kts 264°
2026-05-08 04:22 40.78737 -111.99034 4229 ft 0 kts 264°
2026-05-08 04:26 40.78737 -111.99035 4231 ft 0 kts 264°
2026-05-08 04:26 40.78735 -111.99063 4231 ft 6 kts 265°
2026-05-08 04:26 40.78728 -111.99159 4231 ft 15 kts 265°
2026-05-08 04:27 40.78724 -111.99305 4231 ft 16 kts 267°
2026-05-08 04:27 40.78706 -111.99450 4232 ft 15 kts 231°
2026-05-08 04:27 40.78604 -111.99459 4231 ft 15 kts 174°
2026-05-08 04:27 40.78520 -111.99450 4231 ft 14 kts 175°
2026-05-08 04:28 40.78420 -111.99438 4231 ft 16 kts 174°
2026-05-08 04:28 40.78310 -111.99425 4230 ft 16 kts 175°
2026-05-08 04:28 40.78198 -111.99411 4231 ft 16 kts 174°
2026-05-08 04:28 40.78086 -111.99415 4231 ft 16 kts 190°
2026-05-08 04:29 40.77976 -111.99439 4205 ft 16 kts 181°
2026-05-08 04:29 40.77863 -111.99425 4205 ft 17 kts 176°
2026-05-08 04:29 40.77749 -111.99413 4206 ft 16 kts 173°
2026-05-08 04:29 40.77647 -111.99402 4256 ft 10 kts 175°
2026-05-08 04:30 40.77623 -111.99399 4256 ft 1 kts 175°
2026-05-08 04:30 40.77607 -111.99397 4256 ft 0 kts 175°
2026-05-08 04:30 40.77600 -111.99397 4256 ft 2 kts 175°
2026-05-08 04:30 40.77571 -111.99393 4256 ft 7 kts 176°
2026-05-08 04:31 40.77538 -111.99410 4257 ft 0 kts 221°
2026-05-08 04:33 40.77537 -111.99410 4257 ft 0 kts 221°
2026-05-08 04:33 40.77523 -111.99457 4257 ft 12 kts 260°
2026-05-08 04:34 40.77563 -111.99554 4258 ft 21 kts 356°
2026-05-08 04:34 40.77942 -111.99597 4255 ft 99 kts 355°
2026-05-08 04:34 40.78909 -111.99709 4233 ft 176 kts 355°
2026-05-08 04:34 40.80213 -111.99845 4952 ft 182 kts 356°
2026-05-08 04:35 40.81481 -111.99961 5814 ft 188 kts 356°
2026-05-08 04:35 40.82800 -112.00051 6796 ft 186 kts 359°
2026-05-08 04:35 40.84039 -112.00090 7675 ft 168 kts 358°
2026-05-08 04:35 40.85240 -112.00150 8123 ft 181 kts 352°
2026-05-08 04:36 40.86572 -112.00285 8412 ft 203 kts 352°
2026-05-08 04:36 40.88067 -112.00451 8685 ft 228 kts 350°
2026-05-08 04:36 40.89738 -112.00639 9100 ft 253 kts 351°
2026-05-08 04:36 40.91572 -112.00843 9560 ft 277 kts 351°
2026-05-08 04:37 40.93546 -112.01059 10242 ft 290 kts 351°
2026-05-08 04:37 40.95644 -112.01252 10637 ft 316 kts 356°
2026-05-08 04:37 40.97852 -112.00613 11284 ft 336 kts 20°
2026-05-08 04:37 40.99939 -111.99173 12186 ft 340 kts 24°
2026-05-08 04:38 41.02016 -111.97676 13137 ft 341 kts 24°
2026-05-08 04:38 41.04105 -111.96153 14060 ft 343 kts 24°
2026-05-08 04:38 41.06203 -111.94618 14858 ft 345 kts 24°
2026-05-08 04:38 41.08312 -111.93078 15624 ft 348 kts 24°
2026-05-08 04:39 41.10444 -111.91525 16400 ft 351 kts 23°
2026-05-08 04:39 41.12597 -111.89962 17163 ft 354 kts 23°
2026-05-08 04:39 41.14772 -111.88387 17934 ft 358 kts 22°
2026-05-08 04:39 41.16969 -111.86797 18629 ft 361 kts 22°
2026-05-08 04:40 41.19180 -111.85192 19256 ft 363 kts 22°
2026-05-08 04:40 41.21402 -111.83574 19883 ft 366 kts 22°
2026-05-08 04:40 41.23642 -111.81942 20545 ft 369 kts 22°
2026-05-08 04:40 41.25904 -111.80294 21225 ft 371 kts 22°
2026-05-08 04:41 41.28174 -111.78641 21887 ft 373 kts 22°
2026-05-08 04:41 41.30458 -111.76975 22537 ft 376 kts 22°
2026-05-08 04:41 41.32762 -111.75293 23163 ft 379 kts 22°
2026-05-08 04:41 41.35076 -111.73602 23723 ft 381 kts 22°
2026-05-08 04:42 41.37409 -111.71893 24236 ft 383 kts 22°
2026-05-08 04:42 41.39824 -111.70434 24719 ft 380 kts 13°
2026-05-08 04:42 41.42342 -111.69408 25196 ft 380 kts 10°
2026-05-08 04:42 41.44888 -111.68421 25670 ft 382 kts 10°
2026-05-08 04:43 41.47450 -111.67428 26156 ft 385 kts 11°
2026-05-08 04:43 41.50025 -111.66427 26658 ft 387 kts 11°
2026-05-08 04:43 41.52620 -111.65413 27090 ft 390 kts 11°
2026-05-08 04:43 41.55265 -111.64374 27551 ft 393 kts 11°
2026-05-08 04:44 41.57894 -111.63337 28004 ft 395 kts 11°
2026-05-08 04:44 41.60539 -111.62292 28467 ft 398 kts 11°
2026-05-08 04:44 41.63204 -111.61241 28927 ft 400 kts 11°
2026-05-08 04:44 41.65879 -111.60187 29372 ft 403 kts 11°
2026-05-08 04:45 41.68582 -111.59122 29806 ft 405 kts 11°
2026-05-08 04:45 41.71294 -111.58055 30199 ft 408 kts 11°
2026-05-08 04:45 41.74027 -111.56976 30532 ft 410 kts 11°
2026-05-08 04:45 41.76771 -111.55889 30920 ft 412 kts 11°
2026-05-08 04:46 41.79529 -111.54832 31261 ft 412 kts
2026-05-08 04:46 41.82341 -111.54140 31616 ft 410 kts
2026-05-08 04:46 41.85160 -111.53505 31987 ft 412 kts
2026-05-08 04:46 41.87992 -111.52867 32339 ft 414 kts
2026-05-08 04:47 41.90837 -111.52227 32694 ft 415 kts
2026-05-08 04:47 41.93678 -111.51586 33172 ft 413 kts
2026-05-08 04:47 41.96505 -111.50946 33671 ft 411 kts
2026-05-08 04:47 41.99311 -111.50308 34151 ft 409 kts
2026-05-08 04:48 42.02115 -111.49672 34545 ft 407 kts
2026-05-08 04:48 42.04907 -111.49037 34912 ft 407 kts
2026-05-08 04:48 42.10416 -111.47779 35032 ft 392 kts
2026-05-08 04:49 42.15734 -111.46573 35031 ft 385 kts
2026-05-08 04:49 42.21009 -111.45386 35035 ft 384 kts
2026-05-08 04:50 42.26280 -111.44191 35041 ft 384 kts
2026-05-08 04:50 42.31520 -111.42600 35038 ft 392 kts 13°
2026-05-08 04:51 42.36636 -111.40037 35038 ft 392 kts 13°
2026-05-08 04:51 42.41759 -111.37495 35052 ft 392 kts 13°
2026-05-08 04:52 42.46043 -111.35370 35051 ft 392 kts 13°
2026-05-08 04:52 42.51158 -111.32823 35054 ft 392 kts 13°
2026-05-08 04:53 42.56281 -111.30261 35070 ft 391 kts 13°
2026-05-08 04:53 42.61387 -111.27712 35100 ft 391 kts 12°
2026-05-08 04:54 42.66489 -111.25171 35100 ft 391 kts 12°
2026-05-08 04:54 42.71594 -111.22615 35110 ft 390 kts 13°
2026-05-08 04:55 42.76689 -111.20048 35107 ft 390 kts 13°
2026-05-08 04:55 42.81788 -111.17480 35110 ft 394 kts 13°
2026-05-08 04:56 42.87040 -111.14850 35057 ft 407 kts 13°
2026-05-08 04:56 42.89698 -111.13508 34353 ft 408 kts 13°
2026-05-08 04:56 42.92261 -111.11890 33482 ft 420 kts 22°
2026-05-08 04:57 42.94714 -111.09508 33074 ft 432 kts 31°
2026-05-08 04:57 42.97068 -111.06931 32484 ft 435 kts 31°
2026-05-08 04:57 42.99444 -111.04342 31868 ft 437 kts 31°
2026-05-08 04:57 43.01835 -111.01750 31248 ft 439 kts 31°
2026-05-08 04:58 43.04236 -110.99153 30656 ft 442 kts 31°
2026-05-08 04:58 43.06655 -110.96533 30011 ft 444 kts 31°
2026-05-08 04:58 43.09078 -110.93900 29351 ft 447 kts 31°
2026-05-08 04:58 43.11515 -110.91241 28737 ft 446 kts 32°
2026-05-08 04:59 43.13922 -110.88603 28141 ft 443 kts 32°
2026-05-08 04:59 43.16328 -110.85958 27093 ft 444 kts 32°
2026-05-08 04:59 43.18700 -110.83341 26312 ft 430 kts 32°
2026-05-08 04:59 43.21001 -110.80798 25380 ft 421 kts 32°
2026-05-08 05:00 43.23296 -110.78274 24415 ft 414 kts 32°
2026-05-08 05:00 43.25553 -110.75805 23909 ft 415 kts 32°
2026-05-08 05:00 43.27807 -110.73337 23304 ft 413 kts 32°
2026-05-08 05:00 43.30037 -110.70885 22750 ft 410 kts 32°
2026-05-08 05:01 43.32258 -110.68441 22211 ft 408 kts 32°
2026-05-08 05:01 43.34466 -110.66008 21671 ft 406 kts 32°
2026-05-08 05:01 43.36661 -110.63587 21144 ft 403 kts 32°
2026-05-08 05:01 43.38843 -110.61172 20581 ft 401 kts 32°
2026-05-08 05:02 43.41011 -110.58771 20047 ft 399 kts 33°
2026-05-08 05:02 43.43169 -110.56379 19525 ft 398 kts 33°
2026-05-08 05:02 43.45314 -110.54002 18994 ft 395 kts 33°
2026-05-08 05:02 43.47451 -110.51632 18474 ft 393 kts 33°
2026-05-08 05:03 43.49579 -110.49270 17824 ft 393 kts 33°
2026-05-08 05:03 43.51695 -110.46918 17307 ft 389 kts 33°
2026-05-08 05:03 43.53789 -110.44587 16795 ft 385 kts 34°
2026-05-08 05:03 43.55864 -110.42275 16307 ft 382 kts 34°
2026-05-08 05:04 43.57922 -110.39978 15826 ft 380 kts 34°
2026-05-08 05:04 43.59945 -110.37710 15645 ft 367 kts 34°
2026-05-08 05:04 43.61908 -110.35602 15241 ft 349 kts 26°
2026-05-08 05:04 43.64115 -110.34520 14555 ft 330 kts
2026-05-08 05:05 43.66311 -110.34871 14097 ft 309 kts 336°
2026-05-08 05:05 43.68112 -110.36311 13968 ft 296 kts 316°
2026-05-08 05:05 43.69376 -110.38509 13736 ft 295 kts 298°
2026-05-08 05:05 43.70007 -110.41231 12640 ft 304 kts 281°
2026-05-08 05:06 43.70351 -110.44127 12026 ft 304 kts 280°
2026-05-08 05:06 43.70680 -110.46996 11570 ft 301 kts 280°
2026-05-08 05:06 43.71009 -110.49853 11087 ft 301 kts 280°
2026-05-08 05:06 43.71344 -110.52697 10606 ft 299 kts 280°
2026-05-08 05:07 43.71686 -110.55538 10134 ft 300 kts 279°
2026-05-08 05:07 43.72026 -110.58331 9991 ft 288 kts 280°
2026-05-08 05:07 43.72354 -110.61007 9715 ft 281 kts 280°
2026-05-08 05:07 43.72675 -110.63672 9306 ft 280 kts 278°
2026-05-08 05:08 43.72494 -110.66317 8919 ft 278 kts 248°
2026-05-08 05:08 43.71357 -110.68374 8543 ft 268 kts 216°
2026-05-08 05:08 43.69686 -110.69349 8179 ft 258 kts 194°
2026-05-08 05:08 43.68026 -110.70121 7884 ft 246 kts 202°
2026-05-08 05:09 43.66443 -110.70968 7561 ft 241 kts 201°
2026-05-08 05:09 43.64916 -110.71731 7232 ft 224 kts 200°
2026-05-08 05:09 43.63486 -110.72430 6942 ft 206 kts 199°
2026-05-08 05:09 43.62210 -110.73055 6752 ft 180 kts 198°
2026-05-08 05:10 43.61100 -110.73622 7571 ft 176 kts 200°
2026-05-08 05:10 43.58491 -110.74876 8498 ft 214 kts 200°
2026-05-08 05:10 43.57060 -110.75614 9147 ft 223 kts 204°
2026-05-08 05:11 43.55633 -110.76465 9893 ft 225 kts 207°
2026-05-08 05:11 43.54189 -110.77356 10515 ft 229 kts 205°
2026-05-08 05:11 43.52676 -110.78099 11049 ft 231 kts 201°
2026-05-08 05:11 43.51130 -110.78756 11647 ft 234 kts 201°
2026-05-08 05:12 43.49554 -110.79405 11967 ft 237 kts 201°
2026-05-08 05:12 43.47962 -110.80046 12471 ft 240 kts 200°
2026-05-08 05:12 43.46352 -110.80696 13333 ft 242 kts 201°
2026-05-08 05:12 43.44725 -110.81378 13816 ft 247 kts 204°
2026-05-08 05:13 43.43088 -110.82101 13943 ft 247 kts 204°
2026-05-08 05:13 43.41446 -110.82818 13970 ft 247 kts 204°
2026-05-08 05:13 43.39806 -110.83533 13972 ft 247 kts 204°
2026-05-08 05:13 43.38163 -110.84241 13974 ft 247 kts 203°
2026-05-08 05:14 43.36525 -110.84952 13972 ft 247 kts 203°
2026-05-08 05:14 43.34805 -110.85232 13976 ft 256 kts 176°
2026-05-08 05:14 43.33138 -110.84322 13974 ft 264 kts 148°
2026-05-08 05:14 43.31855 -110.82522 13976 ft 267 kts 118°
2026-05-08 05:15 43.31351 -110.80113 13972 ft 263 kts 86°
2026-05-08 05:15 43.31724 -110.77709 13976 ft 257 kts 62°
2026-05-08 05:15 43.32476 -110.75486 13970 ft 257 kts 58°
2026-05-08 05:15 43.33278 -110.73300 13967 ft 256 kts 58°
2026-05-08 05:16 43.34088 -110.71120 13969 ft 256 kts 58°
2026-05-08 05:16 43.34903 -110.68942 13968 ft 257 kts 57°
2026-05-08 05:16 43.35720 -110.66754 13968 ft 257 kts 58°
2026-05-08 05:16 43.36551 -110.64581 13968 ft 256 kts 54°
2026-05-08 05:17 43.37698 -110.62806 13968 ft 245 kts 32°
2026-05-08 05:17 43.39039 -110.61306 13964 ft 246 kts 32°
2026-05-08 05:17 43.40367 -110.59824 13965 ft 245 kts 33°
2026-05-08 05:17 43.41673 -110.58365 13964 ft 245 kts 32°
2026-05-08 05:18 43.42992 -110.56893 13967 ft 245 kts 32°
2026-05-08 05:18 43.44334 -110.55459 13960 ft 241 kts 25°
2026-05-08 05:18 43.45851 -110.54492 13958 ft 239 kts 20°
2026-05-08 05:18 43.47250 -110.53209 13963 ft 244 kts 32°
2026-05-08 05:19 43.48543 -110.51673 13964 ft 246 kts 36°
2026-05-08 05:19 43.49802 -110.50077 13958 ft 246 kts 36°
2026-05-08 05:19 43.51065 -110.48485 13958 ft 246 kts 36°
2026-05-08 05:19 43.52341 -110.46917 13961 ft 246 kts 36°
2026-05-08 05:20 43.53637 -110.45365 13968 ft 248 kts 35°
2026-05-08 05:20 43.54952 -110.43817 13953 ft 248 kts 34°
2026-05-08 05:20 43.56268 -110.42283 13968 ft 249 kts 34°
2026-05-08 05:20 43.57672 -110.40669 13974 ft 269 kts 34°
2026-05-08 05:21 43.59211 -110.38910 13967 ft 307 kts 34°
2026-05-08 05:21 43.60947 -110.36933 13957 ft 342 kts 34°
2026-05-08 05:21 43.62856 -110.34746 13960 ft 364 kts 35°
2026-05-08 05:21 43.64878 -110.32615 13955 ft 365 kts 25°
2026-05-08 05:22 43.67251 -110.31645 13959 ft 353 kts 359°
2026-05-08 05:22 43.69621 -110.32192 13750 ft 345 kts 336°
2026-05-08 05:22 43.71583 -110.34037 12794 ft 346 kts 311°
2026-05-08 05:22 43.73072 -110.36672 11848 ft 349 kts 305°
2026-05-08 05:23 43.74470 -110.39436 11039 ft 351 kts 303°
2026-05-08 05:23 43.75818 -110.42181 10689 ft 339 kts 303°
2026-05-08 05:23 43.77139 -110.44843 10404 ft 334 kts 304°
2026-05-08 05:23 43.78466 -110.47462 10125 ft 332 kts 304°
2026-05-08 05:24 43.79795 -110.50061 9830 ft 328 kts 302°
2026-05-08 05:24 43.80621 -110.52889 9540 ft 309 kts 278°
2026-05-08 05:24 43.80489 -110.55722 9295 ft 289 kts 254°
2026-05-08 05:24 43.79974 -110.57426 9137 ft 277 kts 246°
2026-05-08 05:25 43.79162 -110.59763 8910 ft 261 kts 245°
2026-05-08 05:25 43.78310 -110.61881 8712 ft 245 kts 231°
2026-05-08 05:25 43.77074 -110.63430 8560 ft 236 kts 218°
2026-05-08 05:25 43.75797 -110.64821 8381 ft 230 kts 219°
2026-05-08 05:26 43.74577 -110.66152 8201 ft 217 kts 219°
2026-05-08 05:26 43.73411 -110.67411 8081 ft 209 kts 216°
2026-05-08 05:26 43.72105 -110.68219 8007 ft 206 kts 200°
2026-05-08 05:26 43.70756 -110.68870 8051 ft 204 kts 201°
2026-05-08 05:27 43.69429 -110.69520 8011 ft 195 kts 201°
2026-05-08 05:27 43.68211 -110.70116 8016 ft 179 kts 201°
2026-05-08 05:27 43.67085 -110.70667 8019 ft 163 kts 201°
2026-05-08 05:27 43.66049 -110.71167 7770 ft 159 kts 200°
2026-05-08 05:28 43.64967 -110.71686 7108 ft 165 kts 202°
2026-05-08 05:28 43.63962 -110.72203 6973 ft 147 kts 200°
2026-05-08 05:28 43.63025 -110.72665 6768 ft 139 kts 196°
2026-05-08 05:28 43.62150 -110.73084 6581 ft 130 kts 197°
2026-05-08 05:29 43.61301 -110.73506 6438 ft 127 kts 195°
2026-05-08 05:29 43.60588 -110.73838 6421 ft 75 kts 199°
2026-05-08 05:29 43.60328 -110.73968 6415 ft 25 kts 200°
2026-05-08 05:29 43.60131 -110.74067 6416 ft 33 kts 200°
2026-05-08 05:30 43.59943 -110.74149 6421 ft 22 kts 165°
2026-05-08 05:30 43.59928 -110.74015 6422 ft 14 kts 34°
2026-05-08 05:30 43.60026 -110.73962 6421 ft 16 kts 19°
2026-05-08 05:30 43.60130 -110.73908 6419 ft 16 kts 20°
2026-05-08 05:31 43.60231 -110.73860 6421 ft 16 kts 20°
2026-05-08 05:31 43.60334 -110.73810 6421 ft 16 kts 18°
2026-05-08 05:31 43.60419 -110.73768 6420 ft 12 kts 20°
2026-05-08 05:31 43.60477 -110.73722 6421 ft 7 kts 66°
2026-05-08 05:32 43.60470 -110.73671 6420 ft 5 kts 108°
2026-05-08 05:32 43.60466 -110.73654 6421 ft 0 kts 109°